星链-1177 (STARLINK-1177 )

导读

STARLINK-1177是美国SpaceX公司星链计划中的一颗低轨互联网通信卫星,于2020年1月29日发射升空。它属于星链星座的早期组网卫星,旨在通过低轨卫星群为全球提供高速宽带互联网服务,填补偏远地区网络覆盖空白,推动全球互联建设,是SpaceX打造大规模卫星互联网星座过程中的重要组成单元。

基本信息
目录编号:
45078
目录名称:
STARLINK-1177
国际标识:
2020-006AL
轨道中心:
EARTH
卫星名称:
星链-1177
卫星全名:
星链-1177 (STARLINK-1177 )
卫星状态:
已陨落 最后检测时间 2025-02-22
发射日期:
2020-01-29 UTC
国别 :
美国 (US)
星等 :
--
轨道信息
数据来源 国际轨道数据
星历时间: 2025-02-21T22:39:50+0800
轨道信息已过期521天
半长轴: 6578.46km
偏心率: 0.0004042
轨道倾角: 53.035°
近地点辐角 23.103°
升交点赤经 126.581°
平近点角 88.855°
近地点: 197.665km
远地点: 202.985km
周期: 88.501分钟
每日圈数: 16.271083
详细信息
固有亮度:
5
最大亮度:
2.5
卫星平台:
Starlink V1.0
覆盖范围:
全球
运营商:
太空探索技术公司
运营商所在国:
美国
制造商(研发单位):
太空探索技术公司
制造商所在国:
美国
使用方式:
暂无
卫星简介
星链(Starlink)计划是由太空探索技术公司(SpaceX)提出的一个巨型低轨卫星互联网星座项目,计划在2019年至2024年间在太空搭建由约1.2万颗卫星组成的“星链”网络,其中1584颗将部署在地球上空550千米处的近地轨道,并从2020年开始工作。该卫星仍在工作。